Weather History for Belize, Belize

Change the Weather History Date:

Friday, November 15, 2013

  Actual Average Record
Temperature  
Mean Temperature 76 °F -  
Max Temperature 80 °F 84 °F 89 °F (2008)
Min Temperature 73 °F 70 °F 66 °F (1999)
Cooling Degree Days 12    
Growing Degree Days 26 (Base 50)    
Moisture  
Dew Point 75 °F    
Average Humidity 97    
Maximum Humidity 100    
Minimum Humidity 90    
Precipitation  
Precipitation 0.71 in 0.24 in - ()
Sea Level Pressure  
Sea Level Pressure 29.90 in    
Wind  
Wind Speed 5 mph ()    
Max Wind Speed 12 mph    
Max Gust Speed -    
Visibility 5.7 miles    
Events Fog , Rain    
Averages and records for this station are not official NWS values.
T = Trace of Precipitation, MM = Missing Value Source: Averaged Metar Reports

Daily Weather History Graph

Daily Weather History Graph

Search for Another Location

Airport:

Trip Planner

Search our weather history database for the weather conditions in past years. The results will help you decide how hot, cold, wet, or windy it might be!

Date:

Astronomy

Nov. 15, 2013 Rise Set
Actual Time 5:58 AM CST 5:17 PM CST
Civil Twilight 5:35 AM CST 5:39 PM CST
Nautical Twilight 5:09 AM CST 6:06 PM CST
Astronomical Twilight 4:43 AM CST 6:32 PM CST
Moon 4:02 PM CST (11/15) 4:09 AM CST (11/15)
Length of Visible Light 12h 04m
Length of Day
11h 18m
Waxing Gibbous, 96% of the Moon is Illuminated
Nov 15
Waxing Gibbous
Nov 17
Full
Nov 25
Last Quarter
Dec 2
New
Dec 9
First Quarter

Hourly Weather History & Observations

Time (CST) Temp. Dew Point Humidity Pressure Visibility Wind Dir Wind Speed Gust Speed Precip Events Conditions
12:00 AM 75 °F 74 °F 98% 29.91 in 9 mi NW 5.8 mph - - Rain Light Rain
3:00 AM 75 °F 74 °F 96% 29.87 in 12 mi Calm Calm - -   Partly Cloudy
5:00 AM 73.4 °F 73.4 °F 100% 29.86 in 3.7 mi NW 6.9 mph - N/A   Unknown
6:00 AM 75 °F 74 °F 97% 29.89 in 1 mi NNW 11.5 mph - - Fog Heavy Fog
6:00 AM 75.2 °F 75.2 °F 100% 29.89 in 0.6 mi NNW 11.5 mph - N/A Fog Fog
7:00 AM 75.2 °F 75.2 °F 100% 29.89 in 1.9 mi NNW 11.5 mph - N/A   Unknown
7:30 AM 75.2 °F 75.2 °F 100% 29.92 in 6.2 mi North 6.9 mph - N/A   Mostly Cloudy
8:00 AM 75.2 °F 75.2 °F 100% 29.92 in 6.2 mi North 9.2 mph - N/A Rain Light Rain
9:00 AM 76 °F 75 °F 96% 29.95 in 3 mi NNE 6.9 mph - - Rain Light Rain
9:00 AM 75.2 °F 75.2 °F 100% 29.95 in 3.1 mi NNE 6.9 mph - N/A Rain Light Rain
9:30 AM 75.2 °F 75.2 °F 100% 29.95 in 3.1 mi ENE 4.6 mph - N/A Rain Light Rain
10:00 AM 73.4 °F 73.4 °F 100% 29.95 in 3.7 mi ENE 2.3 mph - N/A Rain Light Rain
11:00 AM 73.4 °F 73.4 °F 100% 29.92 in 2.5 mi NNW 2.3 mph - N/A Rain Rain
12:00 PM 75 °F 74 °F 95% 29.90 in 4 mi North 2.3 mph - - Rain Light Rain
12:00 PM 75.2 °F 73.4 °F 94% 29.90 in 4.3 mi North 2.3 mph - N/A Rain Light Rain
1:00 PM 77.0 °F 75.2 °F 94% 29.87 in 5.6 mi Calm Calm - N/A Rain Light Rain
1:35 PM 77.0 °F 75.2 °F 94% 29.86 in 6.2 mi ENE 2.3 mph - N/A   Mostly Cloudy
2:00 PM 77.0 °F 75.2 °F 94% 2.98 in 6.2 mi North 5.8 mph - N/A Rain Light Rain Showers
3:00 PM 79 °F 76 °F 90% 29.83 in 12 mi 1.2 mph - - Rain Light Rain Showers
5:00 PM 78.8 °F 77.0 °F 94% 29.84 in 6.2 mi West 2.3 mph - N/A   Mostly Cloudy
6:00 PM 78 °F 77 °F 94% 29.87 in 12 mi West 3.5 mph - -   Partly Cloudy
6:00 PM 78.8 °F 77.0 °F 94% 29.85 in 6.2 mi West 3.5 mph - N/A   Mostly Cloudy
9:00 PM 76 °F 75 °F 97% 29.94 in 12 mi West 2.3 mph - -   Mostly Cloudy